Miscellaneous Local Product
Issued by NWS North Platte, NE

Home | Current Version | Previous Version | Text Only | Print | Product List | Glossary On
Versions: 1 2 3 4 5 6 7 8 9 10 11 12 13 14 15 16 17 18 19 20 21 22 23 24 25 26 27 28 29 30 31 32 33 34 35 36 37 38 39 40 41 42 43 44 45 46 47 48 49 50
824
AXUS43 KLBF 220110
MISLBF


WESTERN AND NORTH CENTRAL NEBRASKA HOURLY WEATHER ROUNDUP
NATIONAL WEATHER SERVICE NORTH PLATTE NE
800 PM CDT FRI JUL 21 2017

NOTE: "FAIR" INDICATES FEW OR NO CLOUDS BELOW 12,000 FEET WITH NO
SIGNIFICANT WEATHER AND/OR OBSTRUCTIONS TO VISIBILITY.

NOTE: STATIONS NOT REPORTING VARIABLES SUCH AS SKY/WEATHER OR
PRESSURE ARE PROVIDED BY RAWS AND APRS NETWORKS AND ARE NOT UNDER
NATIONAL WEATHER SERVICE QUALITY CONTROL.

...OBSERVATIONS IN AND NEAR THE EASTERN PANHANDLE OF NEBRASKA...

CITY           SKY/WX    TMP DP  RH WIND       PRES   REMARKS
PINE RIDGE     SUNNY     89  58  34 N7        29.90S HAZE
GORDON         FAIR      85  60  42 N10       29.91F
CHADRON        SUNNY     93  51  23 NE14      29.89R HX  90
ALLIANCE       SUNNY     88  49  25 NW6       29.94F
SIDNEY         SUNNY     91  50  24 N14       30.00S
CRESCENT LAKE    N/A     89  52  27 N3G12       N/A
$$

...OBSERVATIONS IN NORTHERN NEBRASKA AND FAR SOUTHERN SOUTH DAKOTA...

CITY           SKY/WX    TMP DP  RH WIND       PRES   REMARKS
WINNER         FAIR      94  71  47 E12       29.75F HX 101
VALENTINE      SUNNY     98  52  21 N10       29.81F HX  95
THEDFORD       SUNNY     96  55  24 NW12      29.84S HX  93
AINSWORTH      MOSUNNY   88  74  63 E6        29.82R HX  97
O`NEILL        CLOUDY    85  76  74 NE5       29.81R HX  95
ORD            MOSUNNY   82  58  43 NE21G32   29.80R THUNDER
BROKEN BOW     CLOUDY    92  61  35 NW9       29.78R HX  92
VALENTINE NWR    N/A     96  56  26 N7G16       N/A  HX  94
HALSEY           N/A    101  51  18 NW6G13      N/A  HX  98
BUTTE            N/A     87  76  70 SE7         N/A  HX  97
CHAMBERS         N/A     87  69  54 CALM        N/A  HX  91
EWING            N/A     86  79  80 CALM        N/A  HX 100
$$

...OBSERVATIONS IN SOUTHWEST NEBRASKA AND FAR NORTHEAST COLORADO...

CITY           SKY/WX    TMP DP  RH WIND       PRES   REMARKS
HOLYOKE        FAIR      95  54  24 E10       29.92S HX  93
IMPERIAL       MOSUNNY   98  51  20 N9        29.87S HX  95
OGALLALA       SUNNY     97  42  14 N10       29.89S HX  93
NORTH PLATTE   SUNNY     93  55  27 NW9       29.81S HX  91
MCCOOK         SUNNY     96  64  34 SW6       29.80S HX  98
LEXINGTON      PTSUNNY   90  78  68 S6        29.78F HX 104
STAPLETON        N/A     94  57  28 CALM        N/A  HX  92
GOTHENBURG       N/A     98  68  37 S8          N/A  HX 103
CALLAWAY         N/A     98  58  26 NW12        N/A  HX  97
$$

...OBSERVATIONS IN CENTRAL LINCOLN COUNTY AREA...

CITY           SKY/WX    TMP DP  RH WIND       PRES   REMARKS
N.P. AIRPORT   SUNNY     93  55  27 NW9       29.81S HX  91
N.P. DOWNTOWN    N/A     97  52  21 NW3         N/A  HX  94
N.P. SOUTHEAST   N/A     98  50  19 N5          N/A  HX  95
N.P. HILLCREST   N/A     98  47  17 N10         N/A  HX  94
$$

...SOME OBSERVATIONS FROM AROUND THE REGION...

CITY           SKY/WX    TMP DP  RH WIND       PRES   REMARKS
DENVER         CLOUDY    73  53  49 NW12      30.17R
LIMON          PTSUNNY   79  65  62 CALM      30.04S
ASPEN          CLOUDY    61  53  75 SE9       30.34R
LARAMIE        CLOUDY    63  46  54 W24G33    30.34R
CASPER         CLOUDY    88  34  14 NW9       30.05R
CHEYENNE       CLOUDY    75  46  35 W9        30.18S
SCOTTSBLUFF    CLOUDY    90  56  31 E5        29.96S
GRAND ISLAND   CLEAR     93  76  57 S5        29.76R HX 105
OMAHA          PTCLDY    98  75  47 S12       29.70F HX 110
SIOUX FALLS    PTCLDY    83  75  77 SE7       29.76F HX  90
PIERRE         PTSUNNY   96  63  33 S5        29.71F HX  97
RAPID CITY     SUNNY     90  45  21 N15       29.90S
BISMARCK       SUNNY     88  69  53 SE7       29.76F HX  92
KANSAS CITY    CLEAR     90  75  61 S12       29.81F HX 100
HILL CITY      SUNNY    101  56  22 S8        29.79S HX 100
WICHITA        CLEAR     97  65  34 S10       29.81S HX  99
DODGE CITY     CLEAR     96  54  24 S13       29.86S HX  94
OKLAHOMA CITY  CLEAR     95  62  33 S12       29.88S HX  96
DALLAS         PTCLDY    95  68  41 SE13      29.87F HX  99
AMARILLO       SUNNY     92  51  24 S17       29.99S
$$




USA.gov is the U.S. government's official web portal to all federal, state and local government web resources and services.